| time (UTC) | temp C | wind direction | speed KPH | gust KPH | rain 1hr cm | rain 24hr cm | rain mn cm | humidity % | barometer mb |
| 20260505041536 | 25 | 138 | 0.0 | 0.0 | 0.00 | 0.00 | 0.00 | 90 | 1014.7 |
| 20260505040016 | 25 | 138 | 0.0 | 0.0 | 0.00 | 0.00 | 0.00 | 89 | 1015.1 |
| 20260505034514 | 25 | 151 | 0.0 | 0.0 | 0.00 | 0.00 | 0.00 | 89 | 1015.0 |
| 20260505033013 | 25 | 144 | 0.0 | 3.2 | 0.00 | 0.00 | 0.00 | 89 | 1015.0 |
| 20260505031516 | 25 | 178 | 0.0 | 0.0 | 0.00 | 0.00 | 0.00 | 89 | 1015.1 |
| 20260505030013 | 25 | 194 | 0.0 | 0.0 | 0.00 | 0.00 | 0.00 | 89 | 1015.0 |
| 20260505024512 | 25 | 220 | 0.0 | 0.0 | 0.00 | 0.00 | 0.00 | 89 | 1015.0 |
| 20260505023012 | 25 | 259 | 0.0 | 0.0 | 0.00 | 0.00 | 0.00 | 89 | 1015.4 |
| 20260505021510 | 25 | 257 | 0.0 | 0.0 | 0.00 | 0.00 | 0.00 | 89 | 1015.1 |
| 20260505020016 | 25 | 257 | 0.0 | 0.0 | 0.00 | 0.00 | 0.00 | 89 | 1015.0 |
| 20260505014510 | 25 | 257 | 0.0 | 0.0 | 0.00 | 0.00 | 0.00 | 88 | 1015.1 |
| 20260505013010 | 25 | 257 | 0.0 | 0.0 | 0.00 | 0.00 | 0.00 | 88 | 1015.1 |
| 20260505011510 | 26 | 257 | 0.0 | 0.0 | 0.00 | 0.00 | 0.00 | 88 | 1015.0 |
| 20260505010009 | 26 | 257 | 0.0 | 0.0 | 0.00 | 0.00 | 0.00 | 88 | 1015.0 |
| 20260505004508 | 26 | 257 | 0.0 | 0.0 | 0.00 | 0.00 | 0.00 | 88 | 1014.9 |
| 20260505003007 | 26 | 236 | 0.0 | 0.0 | 0.00 | 0.00 | 0.00 | 88 | 1014.8 |
| 20260505001507 | 26 | 236 | 0.0 | 0.0 | 0.00 | 0.00 | 0.00 | 87 | 1014.5 |
| 20260505000008 | 27 | 236 | 0.0 | 0.0 | 0.00 | 0.00 | 0.00 | 86 | 1014.3 |
| 20260504234506 | 27 | 236 | 0.0 | 0.0 | 0.00 | 0.00 | 0.00 | 84 | 1014.3 |
| 20260504233005 | 27 | 236 | 0.0 | 0.0 | 0.00 | 0.00 | 0.00 | 83 | 1014.0 |
| 20260504231504 | 27 | 236 | 0.0 | 0.0 | 0.00 | 0.00 | 0.00 | 81 | 1013.8 |
| 20260504230011 | 28 | 236 | 0.0 | 0.0 | 0.00 | 0.00 | 0.00 | 76 | 1013.6 |
| 20260504224502 | 28 | 236 | 0.0 | 0.0 | 0.00 | 0.00 | 0.00 | 74 | 1013.5 |
| 20260504223002 | 28 | 236 | 0.0 | 0.0 | 0.00 | 0.00 | 0.00 | 73 | 1013.5 |
| 20260504221501 | 28 | 230 | 0.0 | 0.0 | 0.00 | 0.00 | 0.00 | 72 | 1013.3 |
| 20260504220001 | 29 | 200 | 0.0 | 0.0 | 0.00 | 0.00 | 0.00 | 70 | 1013.3 |
| 20260504214604 | 29 | 148 | 0.0 | 6.4 | 0.00 | 0.00 | 0.00 | 72 | 1013.4 |
| 20260504213137 | 29 | 228 | 1.6 | 9.7 | 0.00 | 0.00 | 0.00 | 70 | 1013.3 |
| 20260504211606 | 30 | 191 | 0.0 | 9.7 | 0.00 | 0.00 | 0.00 | 70 | 1013.3 |
| 20260504210057 | 29 | 150 | 0.0 | 11.3 | 0.00 | 0.00 | 0.00 | 72 | 1013.4 |
| 20260504204557 | 29 | 207 | 0.0 | 12.9 | 0.00 | 0.00 | 0.00 | 74 | 1013.4 |
| 20260504203117 | 29 | 152 | 4.8 | 17.7 | 0.00 | 0.00 | 0.00 | 74 | 1013.4 |
| 20260504201554 | 29 | 188 | 4.8 | 17.7 | 0.00 | 0.00 | 0.00 | 76 | 1013.4 |
| 20260504200054 | 29 | 152 | 9.7 | 17.7 | 0.00 | 0.00 | 0.00 | 76 | 1013.2 |
| 20260504194603 | 29 | 150 | 11.3 | 24.1 | 0.00 | 0.00 | 0.00 | 78 | 1013.2 |
| 20260504193100 | 29 | 137 | 3.2 | 22.5 | 0.00 | 0.00 | 0.00 | 76 | 1013.4 |
| 20260504191551 | 28 | 160 | 12.9 | 25.7 | 0.00 | 0.00 | 0.00 | 77 | 1013.4 |
| 20260504190109 | 29 | 174 | 12.9 | 22.5 | 0.00 | 0.00 | 0.00 | 77 | 1013.6 |
| 20260504184559 | 29 | 144 | 11.3 | 20.9 | 0.00 | 0.00 | 0.00 | 76 | 1013.9 |
| 20260504183049 | 30 | 234 | 9.7 | 25.7 | 0.00 | 0.00 | 0.00 | 75 | 1014.2 |
| 20260504181547 | 29 | 131 | 8.0 | 22.5 | 0.00 | 0.00 | 0.00 | 76 | 1014.3 |
| 20260504180048 | 29 | 221 | 11.3 | 22.5 | 0.00 | 0.00 | 0.00 | 76 | 1014.7 |
| 20260504174546 | 30 | 151 | 11.3 | 22.5 | 0.00 | 0.00 | 0.00 | 76 | 1014.7 |
| 20260504173050 | 28 | 141 | 17.7 | 30.6 | 0.00 | 0.00 | 0.00 | 79 | 1014.8 |
| 20260504171542 | 29 | 139 | 16.1 | 29.0 | 0.00 | 0.00 | 0.00 | 77 | 1014.7 |
| 20260504081517 | 24 | 67 | 0.0 | 8.0 | 0.00 | 0.00 | 0.00 | 90 | 1013.2 |